Home   Weather   Finse   Past weeks

Flag for Norway Past Weather in Finse, Norway — Yesterday and Last 2 Weeks

Now
23 °F

Cold.


Feels Like: 12 °F
Forecast: -1 / 33 °F
Wind: 12 mph from Southeast

Location: Finsevatn

Current Time: Apr 29, 2017 at 7:46:05 am

Latest Report: Apr 29, 2017 at 6:00 am


Visibility: N/A

Pressure: 30.17 "Hg (25.82 "Hg at 1221m altitude)

Humidity: 86%

Dew Point: 20 °F

Location of FinseLocation

Weather Data Notice: We have recorded very few readings for this month, some days may be missing.

Past Weather in Finse — Graph

°F

Finse Temperature Yesterday

Maximum temperature yesterday: 26 °F (at 8:00 pm)
Minimum temperature yesterday: 19 °F (at 4:00 am)
Average temperature yesterday: 23 °F

High & Low Weather Summary for the Past Weeks

 TemperatureHumidityPressure
High32 °F (Apr 27, 4:00 pm)88% (Apr 27, 10:00 pm)30.17 "Hg (Apr 27, 10:00 pm)
Low16 °F (Apr 27, 9:00 pm)41% (Apr 27, 4:00 pm)29.74 "Hg (Apr 27, 4:00 pm)
Average24 °F75%29.98 "Hg
* Reported Apr 27 3:00 pm — Apr 29 6:00 am, Finse, Weather by CustomWeather, © 2017

Note: Actual official high and low records may vary slightly from our data, if they occured in-between our weather recording intervals... More about our weather records

Advertising

Finse Weather History for the Previous 24 Hours

Scroll right to see more
 ConditionsComfort  
Time TempWeatherWind HumidityBarometerVisibility
6:00 am
Sat, Apr 29
23 °FCold.12 mph86%30.17 "HgN/A
5:00 am24 °FCold.15 mph88%30.14 "HgN/A
4:00 am24 °FCold.16 mph86%30.11 "HgN/A
3:00 am25 °FCold.15 mph87%30.09 "HgN/A
2:00 am25 °FChilly.16 mph84%30.08 "HgN/A
1:00 am25 °FChilly.14 mph81%30.07 "HgN/A
12:00 am26 °FChilly.12 mph81%30.07 "HgN/A
11:00 pm
Fri, Apr 28
26 °FChilly.14 mph82%30.06 "HgN/A
10:00 pm26 °FChilly.14 mph81%30.05 "HgN/A
9:00 pm26 °FChilly.13 mph81%30.04 "HgN/A
8:00 pm26 °FChilly.14 mph79%30.02 "HgN/A
7:00 pm26 °FChilly.12 mph79%30.02 "HgN/A
6:00 pm26 °FChilly.13 mph77%30.01 "HgN/A
5:00 pm26 °FChilly.14 mph77%30.00 "HgN/A
4:00 pm25 °FChilly.14 mph78%30.00 "HgN/A
3:00 pm26 °FChilly.13 mph79%30.01 "HgN/A
2:00 pm26 °FChilly.14 mph75%30.00 "HgN/A
1:00 pm24 °FCold.12 mph76%30.01 "HgN/A
12:00 pm23 °FCold.10 mph80%30.01 "HgN/A
11:00 am24 °FCold.10 mph70%30.00 "HgN/A
10:00 am22 °FCold.10 mph74%30.02 "HgN/A
9:00 am22 °FCold.12 mph71%30.01 "HgN/A
8:00 am20 °FCold.12 mph70%30.01 "HgN/A
7:00 am19 °FCold.10 mph71%30.01 "HgN/A
Weather by CustomWeather, © 2017

See weather overviewHow to use our weather pages